Track STARLINK-3920 now! 10-day predictions STARLINK-3920 is classified as:
1 52575U 22051AR 22180.58334491 -.01054202 00000-0 -85097-2 0 9991 2 52575 53.2174 62.1494 0002130 21.4015 232.9954 15.72743582 1305